Landsat 5 - Orbit

View from above orbital plane
View from above orbital plane
View from above satellite
View from above satellite

Ground track
Ground track

The orbit data is extracted from the following two-line orbital elements,

1 14780U 84021A   13143.24277435  .00002391  00000-0  26122-3 0  9745
2 14780 098.0953 208.4755 0093423 008.5387 351.7392 14.85744387554644
Epoch (UTC): 23 May 2013 05:49:35
Eccentricity: 0.0093423
inclination: 98.0953°
perigee height: 546 km
apogee height: 676 km
right ascension of ascending node: 208.4755°
argument of perigee: 8.5387°
revolutions per day: 14.85744387
mean anomaly at epoch: 351.7392°
orbit number at epoch: 55464

The dashed part of the orbit path shows where the satellite is in the earth's shadow,  

Developed and maintained by Chris Peat, Heavens-Above GmbH. Please read the updated FAQ before sending e-mail. Imprint. DLR